Location: Cisewo
(53.3833°N, 14.9000°E)
Time: 05:44:49
(UTC+00:00)

NOAA 18 - Pass Details

Date: 20 September 2021
Orbit: 841 x 860 km, 99.0° (Epoch: 17 October)

Event Time Altitude Azimuth Distance (km) Brightness Sun altitude
Exits shadow 20:43:19 51° 249° (WSW) 1,057 5.7 -29.5°
Maximum altitude 20:43:35 51° 260° (W) 1,051 5.7 -29.5°
Drops below altitude 10° 20:48:57 10° 336° (NNW) 2,480 8.5 -30.0°
Sets 20:51:24 0° 342° (NNW) 3,423 9.4 -30.2°
